{"data":{"norad_id":67547,"intl_designator":"2026-014R","name":"STARLINK-36584","alt_names":[],"object_type":"PAYLOAD","status":"ACTIVE","operator":null,"country":"US","launch_date":"2026-01-22","launch_site_code":"AFWTR","launch_vehicle":null,"mission":null,"orbit_class":"UNKNOWN","rcs_meters":null,"size_class":null,"mass_kg":null,"dimensions":null,"purposes":["comms"],"wikipedia_slug":null,"has_3d_model":false,"image_url":null,"decayed_at":null,"tle_current":{"epoch":"2026-09-19T22:11:07.917216Z","epoch_age_seconds":122029,"freshness":"FRESH","line1":"1 67547U 26014R   26262.92439719  .00019388  00000+0  60115-3 0  9998","line2":"2 67547  97.2858 148.3550 0001923  95.7692 264.3770 15.33452968 38555","mean_motion":15.33452968,"eccentricity":0.0001923,"inclination_deg":97.2858,"raan_deg":148.355,"arg_perigee_deg":95.7692,"mean_anomaly_deg":264.377,"bstar":0.00060115,"rev_number":3855,"period_min":93.905716709272,"perigee_km":464.20343228007,"apogee_km":466.83550255744,"semimajor_km":6843.6564674188,"source":"CELESTRAK","updated_at":"2026-09-20T09:00:43.570131Z"}}}